Vertical_Velocity
0 3 2 8 2 -1 0 -1 2 1 -1 0 1 2 1 1 -1 -1 2 -2 -1 0 -0 4 29 -1 -1 -0 5 -1 -2 0 0 0 1 1 1 1 0 1 1 3 5 16 3 -0 1 1 -1
3 12 1 -6 -3 -6 5 -0 3 -2 5 -0 1 1 -1 -2 1 -1 -0 -4 5 2 2 -1 16 10 16 -4 3 -3 -2 -2 -1 -0 2 -2 2 1 1 -0 -1 -1 7 24 1 0 1 -1 -1
1 0 -5 -18 -3 7 -2 -0 -0 -2 -2 -1 -1 0 3 1 1 3 -0 -1 30 10 -2 1 7 9 15 1 -1 -1 -1 1 0 0 0 -1 1 -2 0 2 -2 3 10 6 -0 6 3 1 -0
2 -8 -3 2 1 -2 -3 -3 -4 -2 -2 -2 -1 0 0 0 -1 -1 -0 -2 -1 -3 5 -1 -2 -7 -4 35 3 -7 -1 2 -0 2 1 -1 3 1 3 2 9 -3 6 4 3 4 2 4 0
-6 -2 3 2 2 3 0 -2 -2 -3 -1 -2 0 -1 -1 -1 0 -1 -1 -0 -0 -1 -4 1 4 5 -11 28 -5 1 -3 2 0 1 2 -1 3 -2 3 1 0 4 6 2 4 1 5 6 3
-10 -8 0 -3 -1 -1 -2 0 -0 -2 -3 -2 -1 -1 -1 -1 -1 -0 -4 -1 0 3 3 -2 -4 -3 11 10 -3 -1 1 1 0 -2 0 1 -1 1 3 23 -1 11 6 4 12 5 17 1 -0
22 -10 -2 -3 0 -4 -0 -2 -3 -1 -4 -1 -5 -4 -2 -2 -2 -2 -5 -5 -3 -4 -1 5 1 2 1 -2 7 8 0 5 -1 -1 -2 -5 -2 1 -1 -1 -3 4 9 9 1 0 7 6 -1
2 1 1 -5 1 -3 -4 1 -6 -1 -5 -2 -6 -7 -3 -3 -3 -3 -4 -4 -3 -2 -1 -3 3 2 -2 -1 -1 5 -0 1 0 -3 -3 4 -2 -0 -1 -1 -3 -1 4 12 3 6 17 1 1
2 2 -0 -1 -3 -9 -1 -3 -1 -2 -2 -1 -1 -4 -5 -4 -5 -4 -2 -4 -5 -2 -2 -7 3 2 -2 -3 -2 7 4 6 2 2 -3 2 0 -1 1 0 -1 -0 2 1 3 -0 4 4 0
-4 -1 -3 -4 -2 -1 -1 -2 -1 -2 0 3 5 6 2 0 0 -1 -2 -6 -2 -2 -2 -6 -2 -1 3 -7 4 -1 1 4 -3 2 -3 -0 -0 0 1 1 1 -2 9 3 -3 0 -1 -4 2
-3 -3 -2 -1 -1 0 -0 -0 1 0 4 0 -3 -4 -3 -4 -5 -8 -4 -7 -4 -8 -4 1 -11 1 -4 -6 4 -5 -1 8 -0 -4 -1 1 -0 -2 1 2 4 -1 7 11 -2 1 0 -1 1
-4 -1 -0 0 -1 -1 0 1 -2 -2 -3 -5 -2 -3 -4 -5 -5 -4 -1 -1 -2 -8 -11 -5 1 -2 -5 -6 6 -2 -3 -0 -3 -3 3 2 3 0 -1 0 2 2 -1 6 -0 -1 1 2 0
-2 -1 -0 -1 -2 -0 -2 -3 -3 -3 -1 -0 -3 -2 -1 -1 -7 -8 -7 -4 -3 -5 -11 -4 -8 -3 -4 -6 1 2 -4 4 -6 1 -1 3 1 -1 -0 0 -1 1 -0 3 0 0 -2 1 -2
-1 -2 -0 -2 -1 3 -0 -4 -3 -3 -3 -1 0 -5 -4 -1 -5 -6 -6 -3 2 -2 -9 -4 0 -10 -7 -3 -6 -0 0 6 -4 -5 3 1 1 2 0 -1 -1 0 -2 4 6 2 -0 -2 -3
-2 2 -7 -0 -3 -4 1 19 -3 -4 -2 1 2 -4 -5 -4 -0 -5 -5 -2 -2 2 -1 -9 -6 -15 -17 -1 -3 -7 2 5 -3 -3 -2 -1 1 2 4 -1 0 2 -1 -4 3 5 1 -1 -2
2 0 -15 -6 3 -3 -10 -4 -4 1 -7 -9 -6 -4 -5 -5 -8 -6 -11 -9 -8 -8 -13 -12 -19 -10 -5 -3 3 -6 -1 11 -4 -1 -4 -0 2 0 2 3 0 1 -6 3 2 11 1 -1 -1
-13 -1 -0 7 -3 1 1 -5 9 -6 -2 -2 -2 -0 -4 -1 -5 -8 -10 -10 -8 -13 -7 -7 -10 -12 -7 -1 2 1 -2 7 -1 4 -6 6 1 -1 0 2 -0 1 -5 -4 4 16 -0 -4 17
3 -0 -0 -5 -5 -7 -7 -6 -11 -2 -2 -1 -2 -7 -1 -4 -5 -0 -8 -8 -9 -8 -8 -12 -10 -13 -8 1 -0 1 1 1 6 1 -4 5 1 1 -2 1 3 4 -2 -3 6 10 9 2 -6
-1 -1 -0 -3 -2 0 -1 -6 -6 -5 -6 -8 -3 1 -3 -8 -2 -8 2 10 -0 -1 -8 -5 -5 -6 -4 -6 2 1 -2 -2 6 8 -3 3 3 0 -0 0 -0 0 -2 1 7 5 16 8 9
-1 -1 0 -2 -3 -1 -1 2 -4 -2 0 11 -1 -8 -4 -0 -0 -2 -2 2 4 -3 -0 -1 -3 6 4 -6 -3 -0 1 -5 7 -1 11 -4 5 -0 1 -1 -2 1 8 -10 15 10 5 12 8
-1 -1 -2 -2 -3 7 -8 -12 -3 -9 -11 -15 -10 -4 -2 -0 -3 -2 -2 -4 -4 -5 2 5 4 4 6 4 -5 1 2 0 -4 1 8 -5 5 1 -3 0 -0 -0 -4 -9 5 12 2 7 6
-5 -4 -3 1 -2 1 0 -12 -5 2 -9 2 -4 -1 3 -0 0 3 -5 -3 1 1 4 5 -0 4 5 -1 1 -0 0 -0 1 6 -8 6 -6 -1 0 -2 2 -0 13 -4 -2 5 9 9 7
-1 -2 0 1 -4 -3 -8 5 -3 -2 8 0 7 -2 -1 -3 1 -4 -4 0 -2 -8 -6 1 1 2 1 -0 2 1 3 3 -0 -4 -1 -1 1 6 10 1 -3 1 3 -2 -8 2 -2 10 1
1 7 14 4 1 -9 -6 -0 -1 -1 -3 8 -4 1 -3 2 -3 -2 -0 -6 -3 0 -2 1 0 1 1 2 -3 -2 -2 -1 -2 -3 3 -3 2 12 -4 6 2 5 2 -3 -9 -2 11 10 8
-2 2 -7 -17 -16 -1 2 0 2 -3 7 -9 -8 -1 -0 -2 1 2 -2 -2 -1 -1 -0 -1 -1 1 -0 1 1 -2 -2 -3 -4 -2 -6 -4 6 4 -2 -2 -2 2 2 -2 5 4 -2 -3 3
-2 -3 -0 -3 1 0 5 -3 0 -0 -7 -5 -1 -4 -1 -4 -2 -1 -0 -2 -4 -2 0 -0 -0 -0 1 -2 1 1 -2 -1 -1 -4 -4 -3 2 1 -0 0 1 2 2 3 -3 2 3 -1 6
-3 -2 -2 1 2 0 -7 -9 -2 -12 0 -1 -2 1 -3 -2 -3 -2 1 -1 -1 -1 -2 -0 -1 -1 -1 -1 -0 0 -0 -1 -1 -3 -2 1 -7 -1 3 -1 -0 5 -3 0 -2 -0 -0 -6 -6
-1 -3 -5 -3 -7 -1 2 0 1 3 1 -2 1 -3 -2 -1 -2 -2 -0 2 -1 1 -0 -1 -1 -1 -1 -1 -1 -0 -0 0 -2 -2 -3 -3 -6 -1 4 1 2 3 3 -8 1 -1 -3 -3 -1
-4 -9 0 2 4 -3 -3 -1 0 2 -3 -0 -2 -6 -2 -0 2 -1 -1 -1 2 0 0 -1 -1 -1 1 1 -1 0 -0 -0 -1 -0 -4 -3 -3 -2 -0 -0 0 2 -0 1 -2 -3 -2 1 -6
0 -2 -2 -0 -7 -7 -3 4 2 -4 3 -3 -8 -1 -1 -1 -3 3 -2 2 -1 -2 -3 1 2 1 1 2 2 0 1 0 0 1 -1 -2 -5 -2 -1 -0 -0 4 3 5 3 3 -2 1 6
Height
5824 5825 5826 5827 5829 5825 5824 5827 5828 5829 5830 5829 5830 5831 5831 5831 5830 5830 5830 5829 5831 5832 5832 5831 5834 5830 5833 5832 5833 5835 5836 5839 5840 5839 5838 5837 5837 5840 5840 5841 5842 5843 5843 5843 5843 5846 5848 5850 5852
5822 5824 5823 5821 5822 5819 5825 5824 5825 5824 5825 5825 5824 5824 5825 5824 5824 5824 5824 5824 5827 5827 5826 5825 5823 5823 5827 5825 5826 5829 5831 5834 5836 5836 5835 5833 5834 5837 5837 5839 5840 5841 5841 5840 5843 5845 5847 5848 5850
5820 5821 5820 5816 5821 5820 5821 5821 5821 5821 5821 5821 5821 5820 5820 5820 5819 5819 5819 5820 5818 5819 5819 5820 5820 5820 5821 5819 5819 5825 5825 5828 5831 5832 5832 5832 5832 5833 5834 5838 5839 5840 5840 5841 5841 5841 5843 5846 5849
5818 5817 5820 5819 5820 5820 5818 5819 5818 5818 5818 5818 5818 5818 5817 5815 5815 5814 5813 5814 5814 5814 5815 5815 5816 5817 5815 5814 5817 5819 5820 5822 5826 5828 5829 5829 5830 5831 5832 5835 5835 5836 5837 5839 5841 5842 5843 5845 5847
5816 5816 5819 5819 5819 5819 5818 5817 5816 5816 5816 5815 5815 5814 5813 5811 5810 5808 5808 5807 5808 5808 5807 5808 5809 5806 5809 5807 5811 5811 5812 5816 5820 5822 5824 5825 5827 5827 5828 5830 5832 5832 5834 5837 5838 5838 5841 5844 5846
5815 5814 5817 5817 5817 5817 5816 5815 5815 5814 5813 5812 5811 5810 5809 5806 5804 5802 5800 5800 5800 5800 5800 5801 5799 5799 5799 5800 5804 5805 5806 5810 5813 5816 5818 5821 5823 5824 5827 5829 5828 5828 5831 5833 5833 5835 5837 5841 5843
5822 5816 5816 5816 5815 5815 5815 5815 5814 5813 5811 5809 5806 5805 5803 5800 5797 5795 5792 5791 5791 5790 5789 5790 5791 5790 5792 5794 5796 5793 5797 5802 5806 5808 5810 5813 5817 5818 5820 5822 5823 5825 5828 5829 5829 5833 5833 5838 5840
5818 5818 5815 5815 5814 5814 5815 5814 5813 5811 5809 5807 5804 5801 5800 5796 5792 5788 5784 5781 5778 5779 5778 5776 5778 5778 5779 5783 5782 5784 5786 5791 5795 5799 5803 5804 5808 5811 5814 5815 5819 5822 5825 5827 5828 5830 5830 5833 5836
5818 5818 5816 5816 5816 5815 5814 5812 5811 5808 5806 5805 5802 5798 5795 5791 5787 5783 5778 5773 5769 5765 5764 5762 5763 5764 5765 5766 5769 5772 5778 5780 5783 5788 5795 5798 5800 5803 5806 5809 5812 5818 5821 5821 5823 5825 5828 5830 5833
5818 5819 5817 5816 5815 5813 5812 5811 5809 5808 5806 5803 5800 5796 5792 5787 5783 5777 5771 5765 5760 5755 5753 5748 5745 5747 5748 5749 5756 5758 5764 5767 5773 5777 5784 5789 5791 5794 5797 5801 5806 5812 5815 5816 5818 5822 5824 5827 5830
5819 5818 5817 5816 5814 5813 5812 5810 5808 5806 5804 5800 5796 5792 5787 5781 5776 5770 5764 5757 5750 5742 5739 5737 5730 5730 5729 5728 5735 5741 5746 5754 5757 5765 5773 5777 5782 5786 5789 5792 5798 5803 5808 5811 5815 5817 5821 5824 5828
5819 5818 5817 5816 5814 5813 5811 5810 5807 5804 5800 5796 5791 5786 5781 5774 5768 5761 5754 5747 5739 5730 5724 5721 5717 5713 5711 5709 5711 5719 5725 5735 5742 5752 5759 5765 5770 5777 5781 5785 5790 5796 5801 5805 5810 5814 5817 5821 5825
5819 5818 5817 5815 5814 5813 5811 5808 5805 5801 5796 5792 5787 5782 5775 5768 5760 5752 5744 5736 5727 5718 5709 5706 5699 5692 5691 5689 5689 5692 5703 5713 5723 5735 5743 5750 5757 5765 5772 5777 5782 5787 5793 5798 5804 5808 5812 5817 5820
5820 5819 5817 5816 5814 5812 5811 5806 5803 5798 5793 5789 5783 5776 5768 5760 5752 5743 5734 5726 5716 5705 5693 5687 5678 5668 5665 5663 5663 5666 5674 5690 5701 5715 5728 5736 5744 5753 5761 5767 5773 5779 5785 5791 5796 5802 5808 5813 5815
5820 5820 5817 5816 5814 5811 5808 5807 5801 5795 5789 5785 5779 5771 5761 5753 5744 5734 5725 5715 5704 5693 5679 5666 5653 5636 5630 5634 5631 5636 5646 5663 5677 5692 5710 5720 5730 5741 5748 5757 5764 5770 5776 5782 5790 5796 5802 5807 5811
5821 5819 5816 5815 5814 5809 5806 5802 5796 5791 5786 5779 5772 5765 5756 5748 5740 5729 5718 5705 5691 5678 5664 5647 5627 5612 5600 5598 5599 5606 5618 5633 5651 5669 5687 5704 5716 5727 5735 5745 5754 5760 5766 5774 5782 5788 5796 5802 5808
5820 5820 5819 5817 5813 5810 5806 5799 5796 5790 5784 5777 5769 5762 5754 5743 5731 5718 5705 5691 5678 5663 5647 5628 5604 5590 5582 5575 5576 5581 5592 5607 5625 5647 5666 5686 5699 5713 5723 5733 5743 5751 5758 5764 5774 5779 5788 5795 5801
5823 5821 5818 5816 5813 5809 5804 5799 5793 5786 5780 5773 5765 5755 5746 5736 5724 5711 5697 5679 5662 5645 5625 5606 5590 5574 5565 5560 5559 5562 5570 5585 5603 5623 5645 5667 5681 5697 5711 5721 5732 5742 5747 5757 5765 5773 5780 5787 5792
5823 5820 5817 5814 5811 5808 5804 5798 5790 5783 5777 5769 5762 5753 5743 5730 5715 5698 5684 5669 5650 5630 5610 5594 5579 5565 5555 5547 5545 5547 5553 5568 5584 5603 5624 5647 5665 5680 5696 5709 5720 5730 5739 5748 5756 5765 5773 5780 5785
5823 5820 5817 5814 5810 5807 5802 5797 5788 5781 5774 5767 5758 5745 5734 5723 5710 5696 5681 5664 5646 5625 5607 5587 5568 5557 5547 5537 5533 5535 5541 5553 5569 5579 5605 5627 5649 5665 5682 5696 5709 5719 5730 5736 5748 5756 5764 5771 5777
5821 5818 5815 5812 5810 5806 5800 5793 5787 5779 5770 5761 5751 5744 5733 5721 5708 5693 5676 5659 5638 5618 5599 5584 5565 5546 5538 5531 5525 5525 5530 5542 5553 5572 5587 5611 5632 5650 5667 5683 5698 5710 5721 5726 5737 5746 5755 5765 5770
5821 5817 5814 5811 5808 5804 5798 5793 5787 5779 5769 5762 5753 5744 5733 5720 5705 5690 5673 5653 5634 5616 5600 5582 5559 5539 5530 5522 5518 5519 5523 5533 5547 5556 5572 5593 5615 5637 5656 5672 5687 5700 5709 5716 5726 5739 5748 5756 5763
5821 5817 5813 5810 5805 5801 5796 5793 5785 5778 5772 5763 5754 5743 5731 5718 5705 5689 5671 5654 5633 5611 5592 5576 5560 5539 5525 5519 5518 5518 5520 5525 5535 5547 5564 5580 5604 5629 5649 5664 5677 5690 5701 5710 5720 5729 5738 5747 5756
5819 5816 5813 5807 5803 5799 5796 5794 5786 5778 5770 5763 5752 5743 5729 5717 5704 5689 5673 5654 5635 5616 5598 5582 5564 5546 5531 5524 5520 5519 5519 5522 5529 5542 5553 5571 5594 5618 5630 5650 5665 5679 5693 5704 5713 5721 5732 5741 5748
5817 5814 5809 5804 5800 5800 5796 5791 5785 5777 5770 5760 5751 5741 5731 5718 5705 5691 5675 5656 5639 5620 5601 5584 5568 5553 5540 5529 5522 5520 5519 5521 5526 5535 5548 5564 5584 5602 5620 5639 5656 5671 5685 5697 5707 5715 5724 5732 5741
5815 5812 5809 5805 5803 5799 5795 5790 5784 5777 5768 5759 5752 5742 5731 5719 5706 5692 5677 5661 5643 5626 5607 5590 5575 5561 5547 5536 5527 5520 5518 5520 5525 5532 5543 5558 5572 5594 5611 5631 5649 5665 5678 5690 5700 5707 5716 5726 5734
5813 5810 5808 5805 5801 5796 5791 5787 5781 5774 5768 5761 5752 5742 5732 5720 5708 5695 5681 5666 5649 5631 5614 5597 5582 5569 5555 5544 5534 5527 5521 5520 5523 5528 5539 5550 5565 5587 5605 5623 5642 5658 5671 5684 5695 5704 5710 5720 5729
5812 5809 5805 5801 5798 5796 5792 5788 5782 5777 5770 5762 5753 5744 5733 5722 5711 5699 5685 5670 5655 5640 5623 5607 5590 5576 5563 5553 5543 5535 5528 5525 5523 5525 5533 5545 5559 5581 5599 5617 5635 5651 5665 5679 5690 5700 5707 5716 5724
5808 5804 5802 5800 5797 5793 5790 5787 5781 5776 5769 5762 5753 5745 5735 5725 5715 5703 5690 5676 5662 5648 5632 5615 5600 5585 5572 5561 5551 5542 5534 5529 5525 5524 5530 5541 5556 5576 5593 5610 5629 5645 5660 5674 5685 5694 5702 5711 5718
5807 5803 5800 5797 5795 5790 5787 5786 5781 5775 5769 5761 5753 5746 5737 5728 5718 5707 5695 5683 5670 5654 5639 5625 5610 5596 5583 5571 5560 5551 5541 5534 5530 5528 5529 5538 5552 5572 5589 5606 5623 5640 5655 5667 5679 5689 5696 5704 5709